| time (UTC) | temp F | wind direction | speed MPH | gust MPH | rain 1hr in | rain 24hr in | rain mn in | humidity % | barometer mb |
| 20260504100500 | 58 | 145 | 0.0 | 1.0 | 0.00 | 0.00 | 0.00 | 81 | 1014.9 |
| 20260504081959 | 61 | 186 | 0.0 | 1.0 | 0.00 | 0.00 | 0.00 | 75 | 1015.4 |
| 20260504080959 | 60 | 186 | 0.0 | 2.0 | 0.00 | 0.00 | 0.00 | 77 | 1015.6 |
| 20260504080458 | 60 | 166 | 0.0 | 1.0 | 0.00 | 0.00 | 0.00 | 77 | 1015.6 |
| 20260504050503 | 63 | 191 | 0.0 | 1.0 | 0.00 | 0.00 | 0.00 | 68 | 1017.5 |
| 20260504045502 | 64 | 193 | 0.0 | 2.0 | 0.00 | 0.00 | 0.00 | 67 | 1017.6 |
| 20260504045004 | 64 | 186 | 1.0 | 3.0 | 0.00 | 0.00 | 0.00 | 67 | 1017.5 |
| 20260504044003 | 65 | 171 | 1.0 | 3.0 | 0.00 | 0.00 | 0.00 | 66 | 1017.6 |
| 20260504043503 | 65 | 183 | 0.0 | 2.0 | 0.00 | 0.00 | 0.00 | 65 | 1017.7 |
| 20260504043026 | 65 | 179 | 0.0 | 2.0 | 0.00 | 0.00 | 0.00 | 65 | 1017.5 |
| 20260504042502 | 65 | 179 | 0.0 | 2.0 | 0.00 | 0.00 | 0.00 | 64 | 1017.6 |
| 20260504042002 | 65 | 187 | 1.0 | 2.0 | 0.00 | 0.00 | 0.00 | 64 | 1017.6 |
| 20260504041517 | 65 | 134 | 1.0 | 3.0 | 0.00 | 0.00 | 0.00 | 65 | 1017.5 |
| 20260504041003 | 65 | 191 | 1.0 | 3.0 | 0.00 | 0.00 | 0.00 | 63 | 1017.7 |
| 20260504040502 | 66 | 142 | 1.0 | 2.0 | 0.00 | 0.00 | 0.00 | 63 | 1017.7 |
| 20260504040026 | 66 | 175 | 1.0 | 3.0 | 0.00 | 0.00 | 0.00 | 62 | 1017.6 |
| 20260504035503 | 66 | 184 | 1.0 | 3.0 | 0.00 | 0.00 | 0.00 | 62 | 1017.6 |
| 20260504034517 | 67 | 159 | 1.0 | 7.0 | 0.00 | 0.00 | 0.00 | 60 | 1017.7 |
| 20260504034004 | 67 | 186 | 1.0 | 7.0 | 0.00 | 0.00 | 0.00 | 59 | 1017.6 |
| 20260504033025 | 67 | 199 | 2.0 | 4.0 | 0.00 | 0.00 | 0.00 | 59 | 1017.7 |
| 20260504032004 | 67 | 179 | 1.0 | 3.0 | 0.00 | 0.00 | 0.00 | 58 | 1017.7 |
| 20260504031517 | 68 | 157 | 1.0 | 5.0 | 0.00 | 0.00 | 0.00 | 58 | 1017.6 |
| 20260504031002 | 68 | 187 | 1.0 | 5.0 | 0.00 | 0.00 | 0.00 | 57 | 1017.6 |
| 20260504030502 | 68 | 182 | 2.0 | 4.0 | 0.00 | 0.00 | 0.00 | 57 | 1017.6 |
| 20260504030028 | 68 | 203 | 2.0 | 5.0 | 0.00 | 0.00 | 0.00 | 57 | 1017.5 |
| 20260504025502 | 68 | 156 | 2.0 | 4.0 | 0.00 | 0.00 | 0.00 | 56 | 1017.5 |
| 20260504025003 | 68 | 158 | 1.0 | 3.0 | 0.00 | 0.00 | 0.00 | 56 | 1017.2 |
| 20260504024003 | 69 | 145 | 2.0 | 7.0 | 0.00 | 0.00 | 0.00 | 56 | 1017.2 |
| 20260504023502 | 69 | 139 | 2.0 | 7.0 | 0.00 | 0.00 | 0.00 | 54 | 1017.1 |
| 20260504023025 | 69 | 155 | 2.0 | 7.0 | 0.00 | 0.00 | 0.00 | 55 | 1017.2 |
| 20260504022502 | 70 | 146 | 2.0 | 7.0 | 0.00 | 0.00 | 0.00 | 53 | 1017.2 |
| 20260504022004 | 70 | 171 | 2.0 | 7.0 | 0.00 | 0.00 | 0.00 | 53 | 1017.3 |
| 20260504021516 | 70 | 156 | 2.0 | 7.0 | 0.00 | 0.00 | 0.00 | 52 | 1017.3 |
| 20260504021002 | 70 | 170 | 3.0 | 7.0 | 0.00 | 0.00 | 0.00 | 52 | 1017.2 |
| 20260504020501 | 70 | 159 | 3.0 | 7.0 | 0.00 | 0.00 | 0.00 | 52 | 1017.1 |
| 20260504020030 | 71 | 189 | 2.0 | 7.0 | 0.00 | 0.00 | 0.00 | 52 | 1017.0 |
| 20260504015503 | 71 | 182 | 2.0 | 8.0 | 0.00 | 0.00 | 0.00 | 51 | 1017.0 |
| 20260504015003 | 71 | 180 | 2.0 | 8.0 | 0.00 | 0.00 | 0.00 | 51 | 1017.0 |
| 20260504014517 | 71 | 185 | 3.0 | 6.0 | 0.00 | 0.00 | 0.00 | 50 | 1017.0 |
| 20260504014003 | 71 | 166 | 2.0 | 7.0 | 0.00 | 0.00 | 0.00 | 50 | 1016.9 |
| 20260504013503 | 72 | 168 | 3.0 | 7.0 | 0.00 | 0.00 | 0.00 | 50 | 1016.8 |
| 20260504013029 | 72 | 167 | 2.0 | 7.0 | 0.00 | 0.00 | 0.00 | 51 | 1016.8 |
| 20260504012502 | 72 | 168 | 2.0 | 5.0 | 0.00 | 0.00 | 0.00 | 50 | 1016.9 |
| 20260504012004 | 72 | 171 | 3.0 | 7.0 | 0.00 | 0.00 | 0.00 | 49 | 1016.7 |
| 20260504011517 | 72 | 162 | 2.0 | 5.0 | 0.00 | 0.00 | 0.00 | 49 | 1016.6 |
| 20260504010502 | 73 | 179 | 2.0 | 8.0 | 0.00 | 0.00 | 0.00 | 48 | 1016.7 |
| 20260504010025 | 73 | 204 | 2.0 | 4.0 | 0.00 | 0.00 | 0.00 | 48 | 1016.7 |
| 20260504005002 | 73 | 135 | 2.0 | 9.0 | 0.00 | 0.00 | 0.00 | 48 | 1016.6 |
| 20260504004516 | 74 | 166 | 3.0 | 9.0 | 0.00 | 0.00 | 0.00 | 46 | 1016.6 |
| 20260504003025 | 74 | 155 | 2.0 | 7.0 | 0.00 | 0.00 | 0.00 | 46 | 1016.7 |
| 20260504002501 | 75 | 160 | 2.0 | 10.0 | 0.00 | 0.00 | 0.00 | 46 | 1016.7 |
| 20260504002002 | 75 | 214 | 3.0 | 10.0 | 0.00 | 0.00 | 0.00 | 45 | 1016.6 |
| 20260504001516 | 75 | 157 | 4.0 | 8.0 | 0.00 | 0.00 | 0.00 | 44 | 1016.7 |
| 20260504001001 | 76 | 111 | 4.0 | 9.0 | 0.00 | 0.00 | 0.00 | 43 | 1016.7 |
| 20260504000501 | 76 | 175 | 3.0 | 10.0 | 0.00 | 0.00 | 0.00 | 43 | 1016.6 |
| 20260504000024 | 76 | 200 | 3.0 | 10.0 | 0.00 | 0.00 | 0.00 | 41 | 1016.7 |
| 20260503235500 | 77 | 200 | 3.0 | 7.0 | 0.00 | 0.00 | 0.00 | 38 | 1016.7 |
| 20260503235002 | 77 | 154 | 2.0 | 7.0 | 0.00 | 0.00 | 0.00 | 35 | 1016.8 |
| 20260503234516 | 77 | 89 | 2.0 | 7.0 | 0.00 | 0.00 | 0.00 | 37 | 1016.8 |
| 20260503234002 | 78 | 227 | 2.0 | 8.0 | 0.00 | 0.00 | 0.00 | 36 | 1016.7 |
| 20260503233501 | 78 | 139 | 3.0 | 8.0 | 0.00 | 0.00 | 0.00 | 35 | 1016.8 |
| 20260503233025 | 78 | 144 | 2.0 | 8.0 | 0.00 | 0.00 | 0.00 | 36 | 1016.9 |
| 20260503232500 | 78 | 181 | 3.0 | 7.0 | 0.00 | 0.00 | 0.00 | 36 | 1016.8 |
| 20260503232002 | 78 | 98 | 3.0 | 7.0 | 0.00 | 0.00 | 0.00 | 34 | 1016.9 |
| 20260503231515 | 79 | 175 | 3.0 | 8.0 | 0.00 | 0.00 | 0.00 | 33 | 1017.0 |
| 20260503231002 | 79 | 250 | 3.0 | 8.0 | 0.00 | 0.00 | 0.00 | 36 | 1016.9 |
| 20260503230502 | 79 | 204 | 3.0 | 6.0 | 0.00 | 0.00 | 0.00 | 34 | 1016.9 |
| 20260503230027 | 79 | 152 | 3.0 | 8.0 | 0.00 | 0.00 | 0.00 | 37 | 1016.9 |
| 20260503225001 | 79 | 148 | 4.0 | 10.0 | 0.00 | 0.00 | 0.00 | 35 | 1017.0 |
| 20260503224516 | 79 | 142 | 3.0 | 10.0 | 0.00 | 0.00 | 0.00 | 35 | 1017.1 |
| 20260503223500 | 79 | 2 | 3.0 | 7.0 | 0.00 | 0.00 | 0.00 | 35 | 1017.1 |
| 20260503222501 | 79 | 196 | 2.0 | 8.0 | 0.00 | 0.00 | 0.00 | 36 | 1017.3 |
| 20260503222002 | 79 | 119 | 2.0 | 8.0 | 0.00 | 0.00 | 0.00 | 36 | 1017.3 |
| 20260503221515 | 80 | 193 | 2.0 | 5.0 | 0.00 | 0.00 | 0.00 | 36 | 1017.6 |
| 20260503221002 | 80 | 195 | 2.0 | 5.0 | 0.00 | 0.00 | 0.00 | 35 | 1017.6 |
| 20260503220501 | 80 | 138 | 2.0 | 8.0 | 0.00 | 0.00 | 0.00 | 37 | 1017.6 |
| 20260503220023 | 80 | 121 | 2.0 | 8.0 | 0.00 | 0.00 | 0.00 | 36 | 1017.5 |
| 20260503215500 | 80 | 102 | 2.0 | 4.0 | 0.00 | 0.00 | 0.00 | 36 | 1017.6 |
| 20260503215000 | 80 | 244 | 3.0 | 7.0 | 0.00 | 0.00 | 0.00 | 35 | 1017.5 |
| 20260503214515 | 81 | 160 | 3.0 | 7.0 | 0.00 | 0.00 | 0.00 | 33 | 1017.5 |
| 20260503214000 | 81 | 116 | 3.0 | 7.0 | 0.00 | 0.00 | 0.00 | 35 | 1017.6 |
| 20260503212500 | 80 | 103 | 3.0 | 7.0 | 0.00 | 0.00 | 0.00 | 34 | 1018.0 |
| 20260503211515 | 80 | 158 | 4.0 | 9.0 | 0.00 | 0.00 | 0.00 | 35 | 1018.2 |
| 20260503210500 | 81 | 173 | 2.0 | 8.0 | 0.00 | 0.00 | 0.00 | 35 | 1018.2 |
| 20260503210024 | 81 | 155 | 2.0 | 5.0 | 0.00 | 0.00 | 0.00 | 38 | 1018.2 |
| 20260503205459 | 81 | 313 | 3.0 | 8.0 | 0.00 | 0.00 | 0.00 | 35 | 1018.2 |
| 20260503204514 | 80 | 75 | 2.0 | 7.0 | 0.00 | 0.00 | 0.00 | 35 | 1018.4 |
| 20260503203459 | 80 | 31 | 1.0 | 6.0 | 0.00 | 0.00 | 0.00 | 34 | 1018.7 |
| 20260503203029 | 81 | 54 | 1.0 | 3.0 | 0.00 | 0.00 | 0.00 | 38 | 1018.8 |
| 20260503202500 | 82 | 307 | 2.0 | 9.0 | 0.00 | 0.00 | 0.00 | 33 | 1018.8 |
| 20260503201515 | 82 | 53 | 3.0 | 8.0 | 0.00 | 0.00 | 0.00 | 33 | 1018.9 |
| 20260503201001 | 82 | 57 | 3.0 | 6.0 | 0.00 | 0.00 | 0.00 | 35 | 1019.1 |
| 20260503200500 | 81 | 46 | 3.0 | 6.0 | 0.00 | 0.00 | 0.00 | 35 | 1019.2 |
| 20260503200026 | 81 | 75 | 3.0 | 7.0 | 0.00 | 0.00 | 0.00 | 38 | 1019.4 |
| 20260503195002 | 79 | 94 | 2.0 | 7.0 | 0.00 | 0.00 | 0.00 | 38 | 1019.5 |
| 20260503194516 | 80 | 133 | 2.0 | 7.0 | 0.00 | 0.00 | 0.00 | 36 | 1019.6 |
| 20260503194001 | 81 | 124 | 2.0 | 7.0 | 0.00 | 0.00 | 0.00 | 39 | 1019.6 |
| 20260503193501 | 80 | 89 | 2.0 | 4.0 | 0.00 | 0.00 | 0.00 | 40 | 1019.8 |
| 20260503193025 | 79 | 101 | 1.0 | 4.0 | 0.00 | 0.00 | 0.00 | 35 | 1019.8 |
| 20260503192501 | 80 | 98 | 2.0 | 6.0 | 0.00 | 0.00 | 0.00 | 36 | 1019.9 |
| 20260503192002 | 80 | 67 | 3.0 | 6.0 | 0.00 | 0.00 | 0.00 | 35 | 1020.0 |
| 20260503191516 | 81 | 50 | 2.0 | 7.0 | 0.00 | 0.00 | 0.00 | 39 | 1020.1 |
| 20260503191002 | 81 | 119 | 2.0 | 6.0 | 0.00 | 0.00 | 0.00 | 39 | 1020.2 |
| 20260503190501 | 81 | 179 | 2.0 | 6.0 | 0.00 | 0.00 | 0.00 | 39 | 1020.2 |
| 20260503190028 | 81 | 117 | 2.0 | 6.0 | 0.00 | 0.00 | 0.00 | 39 | 1020.2 |
| 20260503185500 | 79 | 62 | 3.0 | 7.0 | 0.00 | 0.00 | 0.00 | 36 | 1020.3 |
| 20260503184516 | 80 | 210 | 1.0 | 4.0 | 0.00 | 0.00 | 0.00 | 40 | 1020.4 |
| 20260503184002 | 80 | 174 | 2.0 | 6.0 | 0.00 | 0.00 | 0.00 | 35 | 1020.5 |
| 20260503183500 | 81 | 46 | 3.0 | 10.0 | 0.00 | 0.00 | 0.00 | 37 | 1020.5 |
| 20260503183025 | 80 | 28 | 2.0 | 8.0 | 0.00 | 0.00 | 0.00 | 39 | 1020.6 |
| 20260503182500 | 79 | 56 | 2.0 | 5.0 | 0.00 | 0.00 | 0.00 | 37 | 1020.6 |
| 20260503182002 | 79 | 237 | 3.0 | 6.0 | 0.00 | 0.00 | 0.00 | 36 | 1020.8 |
| 20260503181517 | 80 | 19 | 3.0 | 10.0 | 0.00 | 0.00 | 0.00 | 38 | 1020.9 |
| 20260503181003 | 79 | 101 | 2.0 | 8.0 | 0.00 | 0.00 | 0.00 | 43 | 1020.9 |
| 20260503180027 | 79 | 69 | 2.0 | 10.0 | 0.00 | 0.00 | 0.00 | 38 | 1021.1 |
| 20260503174514 | 79 | 46 | 2.0 | 8.0 | 0.00 | 0.00 | 0.00 | 41 | 1021.5 |
| 20260503174000 | 78 | 79 | 2.0 | 8.0 | 0.00 | 0.00 | 0.00 | 46 | 1021.6 |
| 20260503173501 | 78 | 135 | 2.0 | 6.0 | 0.00 | 0.00 | 0.00 | 42 | 1021.6 |
| 20260503172501 | 78 | 181 | 1.0 | 3.0 | 0.00 | 0.00 | 0.00 | 40 | 1021.8 |
| 20260503171001 | 76 | 237 | 2.0 | 9.0 | 0.00 | 0.00 | 0.00 | 43 | 1022.0 |
| 20260503170459 | 77 | 266 | 2.0 | 9.0 | 0.00 | 0.00 | 0.00 | 42 | 1022.0 |
| 20260503151001 | 72 | 277 | 2.0 | 7.0 | 0.00 | 0.00 | 0.00 | 54 | 1022.0 |
| 20260503150459 | 71 | 192 | 3.0 | 7.0 | 0.00 | 0.00 | 0.00 | 51 | 1022.0 |
| 20260503131002 | 60 | 348 | 0.0 | 0.0 | 0.00 | 0.00 | 0.00 | 90 | 1021.4 |
| 20260503130501 | 59 | 348 | 0.0 | 0.0 | 0.00 | 0.00 | 0.00 | 91 | 1021.4 |
| 20260503110501 | 54 | 348 | 0.0 | 0.0 | 0.00 | 0.00 | 0.00 | 90 | 1020.5 |